Location: Sobotiste
(48.7170°N, 17.4000°E)
Time: 06:09:20
(UTC+02:00)

AO-73 - Pass Details

Date: 16 March 2026
Orbit: 514 x 567 km, 97.8° (Epoch: 13 April)

Event Time Altitude Azimuth Distance (km) Brightness Sun altitude
Rises 04:58:47 0° 358° (N) 2,673 ? -11.2°
Reaches altitude 10° 05:01:33 10° 337° (NNW) 1,769 ? -10.8°
Maximum altitude 05:03:52 16° 299° (WNW) 1,427 ? -10.4°
Enters shadow 05:05:09 14° 276° (W) 1,531 ? -10.2°
